Regional Weather Roundup
Issued by NWS

Home | Current Version | Previous Version | Text Only | Print | Product List | Glossary On
Versions: 1 2 3 4 5 6 7 8 9 10 11 12 13 14 15 16 17 18 19 20 21 22 23 24 25 26 27 28 29 30 31 32 33 34 35 36 37 38 39 40 41 42 43 44 45 46 47 48 49 50
000
ASUS44 KOUN 271800
RWROK

WEATHER ROUNDUP FOR OKLAHOMA
NATIONAL WEATHER SERVICE NORMAN OK
100 PM CDT TUE SEP 27 2016

NOTE: "FAIR" INDICATES FEW OR NO CLOUDS BELOW 12,000 FEET WITH NO
      SIGNIFICANT WEATHER AND/OR OBSTRUCTIONS TO VISIBILITY.

OKZ001>007-009>012-014-015-017-271900-
NORTHWEST OKLAHOMA AND THE PANHANDLE

CITY           SKY/WX    TMP DP  RH WIND       PRES   REMARKS
GAGE           SUNNY     86  41  20 W12G17    30.10F
6HR MIN TEMP:  44; 6HR MAX TEMP:  86;

GUYMON         SUNNY     84  34  16 VRB3      30.13F
ENID/WOODRING  SUNNY     81  50  34 S9        30.06F
$$

OKZ016-021>023-033>039-044-045-271900-
SOUTHWEST OKLAHOMA

CITY           SKY/WX    TMP DP  RH WIND       PRES   REMARKS
LAWTON/REGL    SUNNY     76  43  30 VRB3      30.13F
6HR MIN TEMP:  49; 6HR MAX TEMP:  78;

LAWTON/FT SILL SUNNY     77  44  30 VRB2      30.12F
FREDERICK      SUNNY     77  43  29 CALM      30.11F
CLINTON        SUNNY     79  44  28 SW10      30.14F
HOBART         SUNNY     77  45  32 W8        30.14F
ALTUS AFB      SUNNY     77  41  27 VRB3      30.13F
$$

OKZ018>020-024>031-271900-
CENTRAL OKLAHOMA

CITY           SKY/WX    TMP DP  RH WIND       PRES   REMARKS
OKLAHOMA CITY  MOSUNNY   76  48  37 CALM      30.11F
6HR MIN TEMP:  48; 6HR MAX TEMP:  76;

OKC/WILEY POST SUNNY     76  47  35 VRB7      30.11F
OKC/TINKER AFB SUNNY     76  43  31 SW7       30.10F
STILLWATER     SUNNY     79  47  32 SW9       30.08F
GUTHRIE        SUNNY     77  48  35 VRB7      30.09F
$$

OKZ008-013-054>072-271900-
NORTHEAST OKLAHOMA

CITY           SKY/WX    TMP DP  RH WIND       PRES   REMARKS
TULSA          MOSUNNY   77  43  29 SW7       30.05F
6HR MIN TEMP:  50; 6HR MAX TEMP:  78;

TULSA/JONES    SUNNY     78  46  32 VRB6      30.07F
PONCA CITY     SUNNY     80  46  30 SW12G17   30.05F
BARTLESVILLE   SUNNY     80  46  30 VRB6      30.07F
MUSKOGEE       SUNNY     79  40  24 NE5       30.09F
$$

OKZ032-040>043-046>053-073>077-271900-
SOUTH CENTRAL/SOUTHEAST OKLAHOMA

CITY           SKY/WX    TMP DP  RH WIND       PRES   REMARKS
MCALESTER      SUNNY     78  43  28 N6        30.10F
$$





USA.gov is the U.S. government's official web portal to all federal, state and local government web resources and services.